Погода Нагорный

Погода Нагорный : погода сейчас, прогноз погоды и архив. Всё, что Вы хотите узнать о погоде Нагорный!

Хотите узнать прогноз погоды Нагорный? Тогда Вам сюда: Погода Нагорный

Поиск расширенной информации на нашем сайте:

Другие новости

Новости СМИ2

Главная страница сайта

Новости сайта

02.10.2013

Напоминаем, что на нашем новом сайте вы можете получить высокодетализированные прогнозы погоды по пунктам России, СНГ и мира (включающие важные для авиации метеовеличины, такие как направление и скорость ветра, видимость, явления погоды, количество и форма облачности, нижняя и верхняя граница облачности), а также ознакомиться с разнообразными материалами по авиационной метеорологии и подборкой полезных ссылок на эту тему.

Сайт Метеоцентр.Азия посвящён разработке технологий оптимизации авиаметеорологического обслуживания, включая проектирование и перспективное создание нескольких автоматизированных авиаметеорологических систем:
- система выпуска высокодетальных прогностических карт явлений погоды для нижнего воздушного пространства по России и ближнему зарубежью;
- система верификации прогнозов TAF (выпускаемых синоптиками официальных АМСГ РФ и ближнего зарубежья) и AUTOTAF (выпускаемых сайтом Метеоцентр.Азия) - выявление ошибок, онлайн-сопоставление с фактической погодой METAR, автоматическое внесение коррективов в прогнозы при резком отклонении фактической погоды от прогноза, подсчёт оправдываемости прогнозов по элементам и в целом;
- система обработки, анализа и отображения авиаметеорологической информации для применения провайдерами метеорологической информации.

Рекомендуем: Где купить мебель ресторанов.

Погода Нагорный - сегодня

Время (UTC), дата Ветер
(°,м/с) 
Видим.   Явления Облачность Т
(°С)
Тd
(°С)
f(%) Тe
(°С)
Pmin
(гПа)
dP
(гПа)
Po
(мм)
O2
(г/м3)
Тmin Tmax R s Состояние
почвы
09 17.02.17 180 (Ю) 20000 м    ясно 
-25 -30.5 60 -28  1027.7  1.2  686  306           
12 17.02.17 180 (Ю) 20000 м    ясно 
-27 -32.5 60 -30  1029.7  0.9  686  309    -21.5       
15 17.02.17 180 (Ю) 20000 м    ясно 
-28.5 -34 59 -32  1028.2  686  310           
18 17.02.17 170 (Ю) 20000 м    ясно 
-32 -36.2 66 -36  1031  -1.1  685  315           
21 17.02.17 180 (Ю) 20000 м    ясно 
-33 -37.4 65 -37  1031.4  0.1  685  316           
00 18.02.17 270 (З) 20000 м    ясно 
-33 -37.4 65 -34  1038.4  -5.9  690  318  -34.5      17  неравномерный
сухой снег
100% 
03 18.02.17 тихо ()   20000 м    ясно 
-22 -29.7 50 -22  1023.2  8.5  683  301           
06 18.02.17 тихо ()   20000 м    ясно 
-20.5 -29.4 45 -21  1020.7  1.6  682  299           
09 18.02.17 тихо ()   20000 м    ясно 
-22 -30.8 45 -22  1038.4  0.7  683  301           
12 18.02.17 270 (З) 20000 м    ясно 
-31 -36.3 60 -32  1024.8  1.7  682  312    -19.5       
15 18.02.17 270 (З) 20000 м    ясно 
-34.5 -39.6 60 -35  1026.5  -0.1  681  316           
18 18.02.17 270 (З) 20000 м    ясно 
-36.5 -40.8 64 -38  1027.8  0.3  682  319           
21 18.02.17 тихо ()   20000 м    ясно 
-37.5 -41.2 68 -38  1027.8  -0.8  681  320           
00 19.02.17 270 (З) 20000 м    ясно 
-38 -41.6 69 -39  1028.2  1.8  681  321  -38      17  неравномерный
сухой снег
100% 
03 19.02.17 040 (СВ) 20000 м    ясно 
-27 -32.5 60 -28  1024.2  1.6  683  307           
06 19.02.17 080 (В) 20000 м    ясно 
-20 -27.8 50 -20  1021.7  0.7  683  299           
09 19.02.17 тихо ()   20000 м    ясно 
-20.5 -28.2 50 -21  1020.9  -0.8  682  299           
12 19.02.17 270 (З) 20000 м    ясно 
-28.5 -33.2 64 -29  1026.4  1.7  684  309    -17       
15 19.02.17 270 (З) 20000 м    ясно 
-32 -36.5 64 -33  1028.2  -0.2  684  314           
18 19.02.17 260 (З) 20000 м    ясно 
-32.5 -35.7 73 -33  1028.4  684  314           
21 19.02.17 270 (З) 20000 м    ясно 
-31.5 -35.2 70 -32  1028.6  0.6  684  313           
00 20.02.17 270 (З) 20000 м    4/0 средняя 
[Ac lent]
-33.5 -36.6 74 -34  1030.4  0.3  684  316  -34.5      17  неравномерный
сухой снег
100% 
03 20.02.17 270 (З) 20000 м    ясно 
-19 -23.9 65 -19  1024.3  1.2  685  298           
06 20.02.17 270 (З) 20000 м    ясно 
-11.5 -19.9 50 -11  1020.4  -0.5  685  289           
09 20.02.17 тихо ()   20000 м    4/0 средняя 
[Ac lent]
-13.5 -21.7 50 -14  1020.8  -0.5  684  292           
Время (UTC), дата Ветер
(°,м/с) 
Видим.   Явления Облачность Т
(°С)
Тd
(°С)
f(%) Тe
(°С)
Pmin
(гПа)
dP
(гПа)
Po
(мм)
O2
(г/м3)
Тmin Tmax R s Состояние
почвы

Для получения пояснительной информации подведите курсор к названию столбца.

ПОГОДА Нагорный - архив

Всё, что Вы хотите узнать о погоде Нагорный - удобно и подробно!

Выберите нужную дату (начиная с 1 января 2015* года) и нажмите кнопку "Найти".
Будут отображены архивные сводки погоды по пункту Нагорный, начиная с указанной даты.


Отображать данные в формате CSV (для использования в таблицах Excel)


Внимание! Наш архив погоды предназначен исключительно для личного некоммерческого использования в познавательных целях. Если Вам необходимы официальные справки о состоянии погоды (для производственных, юридических, коммерческих и т.п. целей), обращайтесь в органы Росгидромета.

*Примечание: данная дата относится к архиву по метеостанциям СССР (Россия, СНГ, Балтия).
Архив по метеостанциям Зарубежной Европы и Азии (кроме Китая) хранится 10 дней, по другим регионам земного шара (Китай, Африка, Америка, Австралия, Океания) - 1 день.

Нагорный - район местоположения метеостанции


Название, широта, долгота, высота метеостанции:
Нагорный 56°ш. 124.9°д. 861 м над ур. моря [Российская Федерация]

Дополнительная информация

В oтличие oт бoльшинства пoгoдных сайтoв мы публикуем пoдрoбную метеoинфoрмацию в детальнoм прoфессиoнальнoм фoрмате.

Характеристики температуры и влажнoсти вoздуха измеряются на высoте 2 м в тени вдали oт зданий и деревьев.
Скoрoсть ветра измеряется на высoте 10 м (на урoвне рoста челoвека скoрoсть ветра ниже в 1.5-2 раза). Если метеoстанция нахoдится в гoрoде или в лесу, тo скoрoсть ветра занижена на 2-4 м/с пo сравнению с oткрытым местoм. Скoрoсть ветра над акватoриями крупных рек и oзёр, а также на вершинах хoлмoв на 2-5 м/с выше, чем в oбычных услoвиях.
Атмoсфернoе давление в разных тoчках местнoсти мoжет значительнo oтличаться oт давления на метеoстанции, в зависимoсти oт услoвий рельефа (при пoдъёме на 10 м давление пoнижается примернo на 1 мм рт.ст.).